{"data":{"norad_id":67120,"intl_designator":"2025-299U","name":"STARLINK-36217","alt_names":[],"object_type":"PAYLOAD","status":"ACTIVE","operator":null,"country":"US","launch_date":"2025-12-15","launch_site_code":"AFETR","launch_vehicle":null,"mission":null,"orbit_class":"UNKNOWN","rcs_meters":null,"size_class":null,"mass_kg":null,"dimensions":null,"purposes":["comms"],"wikipedia_slug":null,"has_3d_model":false,"image_url":null,"decayed_at":null,"tle_current":{"epoch":"2026-09-19T23:01:33.946752Z","epoch_age_seconds":125777,"freshness":"FRESH","line1":"1 67120U 25299U   26262.95942068  .00016682  00000+0  61422-3 0  9994","line2":"2 67120  43.0019 152.1651 0001672 228.6610 131.4098 15.27587445 42827","mean_motion":15.27587445,"eccentricity":0.0001672,"inclination_deg":43.0019,"raan_deg":152.1651,"arg_perigee_deg":228.661,"mean_anomaly_deg":131.4098,"bstar":0.00061422,"rev_number":4282,"period_min":94.266289285979,"perigee_km":481.87961653399,"apogee_km":484.17398970975,"semimajor_km":6861.1638031219,"source":"CELESTRAK","updated_at":"2026-09-21T09:00:36.107337Z"}}}